| time (UTC) | temp F | wind direction | speed MPH | gust MPH | rain 1hr in | rain 24hr in | rain mn in | humidity % | barometer mb |
| 20260506223253 | 86 | 121 | 7.0 | 15.0 | 0.00 | 0.00 | 0.00 | 17 | 1014.5 |
| 20260506222755 | 85 | 120 | 7.0 | 15.0 | 0.00 | 0.00 | 0.00 | 18 | 1014.6 |
| 20260506222254 | 86 | 64 | 6.0 | 15.0 | 0.00 | 0.00 | 0.00 | 17 | 1014.7 |
| 20260506222249 | 85 | 34 | 5.0 | 12.0 | 0.00 | 0.00 | 0.00 | 17 | 1014.7 |
| 20260506221250 | 85 | 112 | 6.0 | 14.0 | 0.00 | 0.00 | 0.00 | 18 | 1014.7 |
| 20260506220749 | 85 | 130 | 8.0 | 14.0 | 0.00 | 0.00 | 0.00 | 18 | 1014.9 |
| 20260506220249 | 85 | 124 | 8.0 | 14.0 | 0.00 | 0.00 | 0.00 | 18 | 1014.9 |
| 20260506215750 | 85 | 57 | 6.0 | 13.0 | 0.00 | 0.00 | 0.00 | 18 | 1014.8 |
| 20260506215250 | 85 | 42 | 7.0 | 13.0 | 0.00 | 0.00 | 0.00 | 18 | 1014.9 |
| 20260506214749 | 85 | 36 | 8.0 | 13.0 | 0.00 | 0.00 | 0.00 | 18 | 1015.0 |
| 20260506214250 | 85 | 66 | 7.0 | 17.0 | 0.00 | 0.00 | 0.00 | 18 | 1015.0 |
| 20260506213749 | 85 | 93 | 7.0 | 17.0 | 0.00 | 0.00 | 0.00 | 18 | 1015.0 |
| 20260506213255 | 84 | 128 | 8.0 | 17.0 | 0.00 | 0.00 | 0.00 | 18 | 1015.1 |
| 20260506213250 | 85 | 52 | 8.0 | 17.0 | 0.00 | 0.00 | 0.00 | 18 | 1015.1 |
| 20260506212251 | 84 | 61 | 9.0 | 17.0 | 0.00 | 0.00 | 0.00 | 19 | 1015.1 |
| 20260506211749 | 84 | 64 | 8.0 | 14.0 | 0.00 | 0.00 | 0.00 | 19 | 1015.1 |
| 20260506211249 | 84 | 67 | 7.0 | 14.0 | 0.00 | 0.00 | 0.00 | 19 | 1015.2 |
| 20260506210747 | 84 | 57 | 8.0 | 14.0 | 0.00 | 0.00 | 0.00 | 19 | 1015.2 |
| 20260506210248 | 84 | 111 | 9.0 | 18.0 | 0.00 | 0.00 | 0.00 | 19 | 1015.2 |
| 20260506205747 | 84 | 54 | 9.0 | 18.0 | 0.00 | 0.00 | 0.00 | 19 | 1015.2 |
| 20260506205245 | 83 | 80 | 9.0 | 18.0 | 0.00 | 0.00 | 0.00 | 19 | 1015.2 |
| 20260506204745 | 84 | 69 | 9.0 | 18.0 | 0.00 | 0.00 | 0.00 | 20 | 1015.3 |
| 20260506204250 | 84 | 67 | 8.0 | 16.0 | 0.00 | 0.00 | 0.00 | 20 | 1015.3 |
| 20260506204246 | 84 | 65 | 9.0 | 16.0 | 0.00 | 0.00 | 0.00 | 20 | 1015.3 |
| 20260506203245 | 84 | 109 | 6.0 | 13.0 | 0.00 | 0.00 | 0.00 | 20 | 1015.3 |
| 20260506202745 | 84 | 63 | 7.0 | 13.0 | 0.00 | 0.00 | 0.00 | 21 | 1015.5 |
| 20260506202243 | 83 | 64 | 8.0 | 13.0 | 0.00 | 0.00 | 0.00 | 20 | 1015.5 |
| 20260506201744 | 83 | 353 | 7.0 | 13.0 | 0.00 | 0.00 | 0.00 | 21 | 1015.6 |
| 20260506201243 | 83 | 49 | 4.0 | 11.0 | 0.00 | 0.00 | 0.00 | 22 | 1015.7 |
| 20260506200744 | 83 | 13 | 3.0 | 11.0 | 0.00 | 0.00 | 0.00 | 22 | 1015.7 |
| 20260506200243 | 83 | 144 | 4.0 | 11.0 | 0.00 | 0.00 | 0.00 | 22 | 1015.7 |
| 20260506195743 | 82 | 124 | 6.0 | 13.0 | 0.00 | 0.00 | 0.00 | 22 | 1015.8 |
| 20260506195243 | 82 | 116 | 6.0 | 13.0 | 0.00 | 0.00 | 0.00 | 22 | 1015.9 |
| 20260506194749 | 81 | 117 | 4.0 | 10.0 | 0.00 | 0.00 | 0.00 | 24 | 1016.1 |
| 20260506194744 | 82 | 96 | 4.0 | 10.0 | 0.00 | 0.00 | 0.00 | 23 | 1015.9 |
| 20260506193743 | 80 | 44 | 4.0 | 9.0 | 0.00 | 0.00 | 0.00 | 24 | 1016.2 |
| 20260506193243 | 80 | 94 | 4.0 | 9.0 | 0.00 | 0.00 | 0.00 | 24 | 1016.2 |
| 20260506192743 | 80 | 101 | 3.0 | 8.0 | 0.00 | 0.00 | 0.00 | 25 | 1016.2 |
| 20260506192249 | 80 | 107 | 4.0 | 8.0 | 0.00 | 0.00 | 0.00 | 25 | 1016.4 |
| 20260506192243 | 80 | 140 | 4.0 | 8.0 | 0.00 | 0.00 | 0.00 | 25 | 1016.4 |
| 20260506191243 | 79 | 15 | 4.0 | 9.0 | 0.00 | 0.00 | 0.00 | 25 | 1016.5 |
| 20260506190743 | 79 | 82 | 5.0 | 10.0 | 0.00 | 0.00 | 0.00 | 26 | 1016.5 |
| 20260506190243 | 78 | 55 | 4.0 | 10.0 | 0.00 | 0.00 | 0.00 | 26 | 1016.5 |
| 20260506185742 | 78 | 44 | 4.0 | 8.0 | 0.00 | 0.00 | 0.00 | 26 | 1016.5 |
| 20260506185242 | 78 | 78 | 4.0 | 8.0 | 0.00 | 0.00 | 0.00 | 26 | 1016.5 |
| 20260506184743 | 78 | 65 | 3.0 | 8.0 | 0.00 | 0.00 | 0.00 | 27 | 1016.7 |
| 20260506184248 | 77 | 39 | 2.0 | 9.0 | 0.00 | 0.00 | 0.00 | 27 | 1016.8 |
| 20260506184243 | 77 | 3 | 3.0 | 9.0 | 0.00 | 0.00 | 0.00 | 27 | 1016.7 |
| 20260506183243 | 77 | 329 | 2.0 | 9.0 | 0.00 | 0.00 | 0.00 | 27 | 1017.0 |
| 20260506182743 | 76 | 348 | 4.0 | 9.0 | 0.00 | 0.00 | 0.00 | 28 | 1017.1 |
| 20260506182244 | 76 | 353 | 4.0 | 9.0 | 0.00 | 0.00 | 0.00 | 28 | 1017.1 |
| 20260506181742 | 76 | 86 | 2.0 | 6.0 | 0.00 | 0.00 | 0.00 | 28 | 1017.1 |
| 20260506181243 | 76 | 194 | 3.0 | 6.0 | 0.00 | 0.00 | 0.00 | 28 | 1017.1 |
| 20260506180744 | 76 | 38 | 3.0 | 9.0 | 0.00 | 0.00 | 0.00 | 28 | 1017.2 |
| 20260506180243 | 75 | 3 | 3.0 | 9.0 | 0.00 | 0.00 | 0.00 | 29 | 1017.2 |
| 20260506175745 | 74 | 3 | 4.0 | 9.0 | 0.00 | 0.00 | 0.00 | 30 | 1017.3 |
| 20260506175741 | 74 | 348 | 4.0 | 9.0 | 0.00 | 0.00 | 0.00 | 30 | 1017.2 |
| 20260506175358 | 73 | 61 | 3.0 | 9.0 | 0.00 | 0.00 | 0.00 | 30 | 1017.2 |
| 20260506175354 | 73 | 340 | 3.0 | 9.0 | 0.00 | 0.00 | 0.00 | 30 | 1017.3 |
| 20260506174354 | 73 | 80 | 3.0 | 7.0 | 0.00 | 0.00 | 0.00 | 30 | 1017.2 |
| 20260506173246 | 74 | 36 | 2.0 | 6.0 | 0.00 | 0.00 | 0.00 | 30 | 1017.3 |
| 20260506173242 | 73 | 49 | 4.0 | 7.0 | 0.00 | 0.00 | 0.00 | 30 | 1017.3 |
| 20260506172241 | 74 | 29 | 3.0 | 7.0 | 0.00 | 0.00 | 0.00 | 30 | 1017.2 |
| 20260506171741 | 74 | 51 | 3.0 | 7.0 | 0.00 | 0.00 | 0.00 | 30 | 1017.3 |
| 20260506171241 | 73 | 353 | 2.0 | 7.0 | 0.00 | 0.00 | 0.00 | 30 | 1017.2 |
| 20260506170741 | 73 | 299 | 2.0 | 5.0 | 0.00 | 0.00 | 0.00 | 31 | 1017.2 |
| 20260506170241 | 72 | 301 | 2.0 | 5.0 | 0.00 | 0.00 | 0.00 | 31 | 1017.3 |
| 20260506165742 | 72 | 300 | 3.0 | 6.0 | 0.00 | 0.00 | 0.00 | 31 | 1017.3 |
| 20260506165241 | 72 | 7 | 3.0 | 6.0 | 0.00 | 0.00 | 0.00 | 31 | 1017.3 |
| 20260506164740 | 72 | 3 | 1.0 | 6.0 | 0.00 | 0.00 | 0.00 | 31 | 1017.3 |
| 20260506164240 | 72 | 348 | 1.0 | 5.0 | 0.00 | 0.00 | 0.00 | 32 | 1017.3 |
| 20260506163739 | 72 | 284 | 3.0 | 8.0 | 0.00 | 0.00 | 0.00 | 32 | 1017.3 |
| 20260506163239 | 71 | 256 | 2.0 | 8.0 | 0.00 | 0.00 | 0.00 | 34 | 1017.3 |
| 20260506162738 | 71 | 249 | 1.0 | 4.0 | 0.00 | 0.00 | 0.00 | 34 | 1017.3 |
| 20260506162243 | 69 | 292 | 3.0 | 7.0 | 0.00 | 0.00 | 0.00 | 35 | 1017.4 |
| 20260506162238 | 70 | 177 | 2.0 | 7.0 | 0.00 | 0.00 | 0.00 | 34 | 1017.4 |
| 20260506161851 | 69 | 257 | 3.0 | 7.0 | 0.00 | 0.00 | 0.00 | 35 | 1017.3 |
| 20260506161351 | 69 | 308 | 3.0 | 7.0 | 0.00 | 0.00 | 0.00 | 36 | 1017.4 |
| 20260506160239 | 68 | 278 | 3.0 | 7.0 | 0.00 | 0.00 | 0.00 | 37 | 1017.4 |
| 20260506155739 | 67 | 283 | 4.0 | 7.0 | 0.00 | 0.00 | 0.00 | 37 | 1017.4 |
| 20260506155239 | 67 | 205 | 4.0 | 10.0 | 0.00 | 0.00 | 0.00 | 38 | 1017.3 |
| 20260506154738 | 67 | 254 | 4.0 | 10.0 | 0.00 | 0.00 | 0.00 | 39 | 1017.3 |
| 20260506154240 | 66 | 282 | 6.0 | 10.0 | 0.00 | 0.00 | 0.00 | 40 | 1017.3 |
| 20260506153739 | 66 | 260 | 5.0 | 10.0 | 0.00 | 0.00 | 0.00 | 40 | 1017.3 |
| 20260506153238 | 65 | 240 | 4.0 | 8.0 | 0.00 | 0.00 | 0.00 | 41 | 1017.3 |
| 20260506152738 | 65 | 258 | 4.0 | 7.0 | 0.00 | 0.00 | 0.00 | 42 | 1017.3 |
| 20260506152238 | 64 | 274 | 4.0 | 10.0 | 0.00 | 0.00 | 0.00 | 43 | 1017.3 |
| 20260506151739 | 64 | 228 | 3.0 | 10.0 | 0.00 | 0.00 | 0.00 | 44 | 1017.3 |
| 20260506151236 | 63 | 262 | 4.0 | 8.0 | 0.00 | 0.00 | 0.00 | 44 | 1017.2 |
| 20260506150738 | 62 | 288 | 5.0 | 9.0 | 0.00 | 0.00 | 0.00 | 45 | 1017.2 |
| 20260506150238 | 62 | 225 | 5.0 | 9.0 | 0.00 | 0.00 | 0.00 | 46 | 1017.2 |
| 20260506150234 | 61 | 223 | 4.0 | 9.0 | 0.00 | 0.00 | 0.00 | 47 | 1017.2 |
| 20260506145236 | 60 | 238 | 4.0 | 9.0 | 0.00 | 0.00 | 0.00 | 47 | 1017.2 |
| 20260506144734 | 60 | 268 | 4.0 | 9.0 | 0.00 | 0.00 | 0.00 | 48 | 1017.1 |
| 20260506144234 | 60 | 238 | 5.0 | 9.0 | 0.00 | 0.00 | 0.00 | 49 | 1017.2 |
| 20260506143735 | 59 | 240 | 5.0 | 9.0 | 0.00 | 0.00 | 0.00 | 49 | 1017.2 |
| 20260506143235 | 59 | 257 | 4.0 | 9.0 | 0.00 | 0.00 | 0.00 | 49 | 1017.1 |
| 20260506142735 | 58 | 246 | 4.0 | 9.0 | 0.00 | 0.00 | 0.00 | 51 | 1017.0 |
| 20260506142234 | 58 | 257 | 4.0 | 9.0 | 0.00 | 0.00 | 0.00 | 52 | 1017.0 |
| 20260506141734 | 57 | 248 | 4.0 | 10.0 | 0.00 | 0.00 | 0.00 | 52 | 1016.8 |
| 20260506141238 | 56 | 218 | 7.0 | 10.0 | 0.00 | 0.00 | 0.00 | 54 | 1016.6 |
| 20260506141233 | 57 | 225 | 6.0 | 10.0 | 0.00 | 0.00 | 0.00 | 53 | 1016.7 |
| 20260506140232 | 56 | 176 | 6.0 | 10.0 | 0.00 | 0.00 | 0.00 | 55 | 1016.6 |
| 20260506135732 | 56 | 230 | 6.0 | 11.0 | 0.00 | 0.00 | 0.00 | 56 | 1016.5 |
| 20260506135232 | 55 | 226 | 7.0 | 11.0 | 0.00 | 0.00 | 0.00 | 56 | 1016.5 |
| 20260506134733 | 55 | 243 | 6.0 | 17.0 | 0.00 | 0.00 | 0.00 | 56 | 1016.5 |
| 20260506134234 | 55 | 254 | 8.0 | 17.0 | 0.00 | 0.00 | 0.00 | 56 | 1016.3 |
| 20260506133733 | 54 | 265 | 11.0 | 17.0 | 0.00 | 0.00 | 0.00 | 56 | 1016.3 |
| 20260506133238 | 53 | 222 | 8.0 | 16.0 | 0.00 | 0.00 | 0.00 | 57 | 1015.9 |
| 20260506133232 | 54 | 235 | 10.0 | 17.0 | 0.00 | 0.00 | 0.00 | 56 | 1016.0 |
| 20260506132231 | 53 | 244 | 7.0 | 13.0 | 0.00 | 0.00 | 0.00 | 57 | 1015.9 |
| 20260506131730 | 53 | 275 | 8.0 | 13.0 | 0.00 | 0.00 | 0.00 | 57 | 1015.9 |
| 20260506131235 | 53 | 246 | 8.0 | 12.0 | 0.00 | 0.00 | 0.00 | 57 | 1015.7 |
| 20260506131231 | 53 | 240 | 8.0 | 13.0 | 0.00 | 0.00 | 0.00 | 57 | 1015.9 |
| 20260506130230 | 53 | 238 | 8.0 | 15.0 | 0.00 | 0.00 | 0.00 | 57 | 1015.7 |
| 20260506125731 | 54 | 251 | 9.0 | 15.0 | 0.00 | 0.00 | 0.00 | 56 | 1015.7 |
| 20260506125230 | 54 | 241 | 11.0 | 15.0 | 0.00 | 0.00 | 0.00 | 56 | 1015.6 |
| 20260506124732 | 54 | 259 | 11.0 | 15.0 | 0.00 | 0.00 | 0.00 | 56 | 1015.5 |
| 20260506124234 | 54 | 223 | 11.0 | 17.0 | 0.00 | 0.00 | 0.00 | 57 | 1015.2 |
| 20260506124230 | 53 | 233 | 10.0 | 17.0 | 0.00 | 0.00 | 0.00 | 57 | 1015.3 |
| 20260506123231 | 53 | 222 | 12.0 | 17.0 | 0.00 | 0.00 | 0.00 | 57 | 1015.2 |
| 20260506122730 | 53 | 226 | 10.0 | 17.0 | 0.00 | 0.00 | 0.00 | 57 | 1015.1 |
| 20260506122234 | 54 | 217 | 10.0 | 16.0 | 0.00 | 0.00 | 0.00 | 57 | 1015.2 |
| 20260506122230 | 53 | 216 | 10.0 | 16.0 | 0.00 | 0.00 | 0.00 | 57 | 1015.0 |
| 20260506121230 | 54 | 222 | 11.0 | 18.0 | 0.00 | 0.00 | 0.00 | 57 | 1015.2 |
| 20260506120730 | 54 | 211 | 12.0 | 18.0 | 0.00 | 0.00 | 0.00 | 56 | 1015.1 |
| 20260506120235 | 54 | 229 | 13.0 | 18.0 | 0.00 | 0.00 | 0.00 | 58 | 1014.9 |
| 20260506120230 | 54 | 237 | 12.0 | 18.0 | 0.00 | 0.00 | 0.00 | 57 | 1015.0 |
| 20260506115230 | 54 | 220 | 13.0 | 19.0 | 0.00 | 0.00 | 0.00 | 58 | 1015.0 |
| 20260506114730 | 54 | 233 | 13.0 | 19.0 | 0.00 | 0.00 | 0.00 | 58 | 1015.0 |
| 20260506114230 | 54 | 219 | 14.0 | 19.0 | 0.00 | 0.00 | 0.00 | 58 | 1014.9 |
| 20260506113730 | 54 | 258 | 13.0 | 19.0 | 0.00 | 0.00 | 0.00 | 58 | 1014.9 |
| 20260506113231 | 54 | 226 | 13.0 | 19.0 | 0.00 | 0.00 | 0.00 | 59 | 1014.9 |
| 20260506112729 | 54 | 225 | 13.0 | 19.0 | 0.00 | 0.00 | 0.00 | 58 | 1014.9 |
| 20260506112230 | 54 | 212 | 12.0 | 18.0 | 0.00 | 0.00 | 0.00 | 57 | 1014.8 |
| 20260506111730 | 54 | 212 | 11.0 | 18.0 | 0.00 | 0.00 | 0.00 | 57 | 1014.9 |
| 20260506111230 | 54 | 239 | 12.0 | 17.0 | 0.00 | 0.00 | 0.00 | 57 | 1014.8 |
| 20260506110729 | 54 | 215 | 13.0 | 17.0 | 0.00 | 0.00 | 0.00 | 57 | 1014.8 |
| 20260506110230 | 54 | 228 | 12.0 | 18.0 | 0.00 | 0.00 | 0.00 | 56 | 1014.8 |
| 20260506105731 | 55 | 225 | 12.0 | 18.0 | 0.00 | 0.00 | 0.00 | 56 | 1014.8 |
| 20260506105229 | 54 | 221 | 12.0 | 19.0 | 0.00 | 0.00 | 0.00 | 56 | 1014.8 |
| 20260506104735 | 54 | 212 | 12.0 | 19.0 | 0.00 | 0.00 | 0.00 | 57 | 1014.7 |
| 20260506104731 | 54 | 207 | 12.0 | 19.0 | 0.00 | 0.00 | 0.00 | 56 | 1014.7 |
| 20260506103733 | 54 | 222 | 11.0 | 19.0 | 0.00 | 0.00 | 0.00 | 57 | 1014.6 |
| 20260506103729 | 54 | 225 | 12.0 | 19.0 | 0.00 | 0.00 | 0.00 | 57 | 1014.6 |
| 20260506102729 | 54 | 200 | 10.0 | 18.0 | 0.00 | 0.00 | 0.00 | 57 | 1014.6 |
| 20260506102230 | 54 | 234 | 9.0 | 15.0 | 0.00 | 0.00 | 0.00 | 57 | 1014.7 |
| 20260506101735 | 54 | 217 | 6.0 | 11.0 | 0.00 | 0.00 | 0.00 | 56 | 1014.7 |
| 20260506101729 | 54 | 213 | 7.0 | 12.0 | 0.00 | 0.00 | 0.00 | 57 | 1014.6 |
| 20260506100731 | 55 | 196 | 6.0 | 11.0 | 0.00 | 0.00 | 0.00 | 56 | 1014.7 |
| 20260506100229 | 55 | 232 | 7.0 | 13.0 | 0.00 | 0.00 | 0.00 | 56 | 1014.7 |
| 20260506095729 | 55 | 186 | 7.0 | 13.0 | 0.00 | 0.00 | 0.00 | 56 | 1014.6 |
| 20260506095227 | 55 | 203 | 7.0 | 12.0 | 0.00 | 0.00 | 0.00 | 56 | 1014.6 |
| 20260506094727 | 55 | 204 | 8.0 | 16.0 | 0.00 | 0.00 | 0.00 | 56 | 1014.5 |
| 20260506094227 | 55 | 220 | 8.0 | 16.0 | 0.00 | 0.00 | 0.00 | 56 | 1014.4 |
| 20260506093729 | 55 | 232 | 7.0 | 15.0 | 0.00 | 0.00 | 0.00 | 56 | 1014.4 |
| 20260506093228 | 55 | 227 | 8.0 | 15.0 | 0.00 | 0.00 | 0.00 | 56 | 1014.4 |
| 20260506092729 | 55 | 183 | 9.0 | 15.0 | 0.00 | 0.00 | 0.00 | 56 | 1014.4 |
| 20260506092229 | 55 | 228 | 9.0 | 15.0 | 0.00 | 0.00 | 0.00 | 56 | 1014.4 |
| 20260506091727 | 55 | 213 | 10.0 | 15.0 | 0.00 | 0.00 | 0.00 | 56 | 1014.3 |
| 20260506091229 | 55 | 218 | 9.0 | 14.0 | 0.00 | 0.00 | 0.00 | 57 | 1014.3 |
| 20260506090729 | 55 | 215 | 9.0 | 14.0 | 0.00 | 0.00 | 0.00 | 57 | 1014.4 |
| 20260506090231 | 55 | 203 | 11.0 | 15.0 | 0.00 | 0.00 | 0.00 | 57 | 1014.4 |
| 20260506090227 | 55 | 226 | 10.0 | 14.0 | 0.00 | 0.00 | 0.00 | 57 | 1014.4 |
| 20260506085227 | 55 | 221 | 11.0 | 16.0 | 0.00 | 0.00 | 0.00 | 57 | 1014.4 |
| 20260506084728 | 55 | 194 | 12.0 | 17.0 | 0.00 | 0.00 | 0.00 | 56 | 1014.4 |
| 20260506084228 | 55 | 232 | 12.0 | 17.0 | 0.00 | 0.00 | 0.00 | 56 | 1014.4 |
| 20260506083728 | 55 | 231 | 12.0 | 18.0 | 0.00 | 0.00 | 0.00 | 56 | 1014.4 |
| 20260506083227 | 55 | 227 | 12.0 | 18.0 | 0.00 | 0.00 | 0.00 | 55 | 1014.5 |
| 20260506082731 | 56 | 245 | 11.0 | 18.0 | 0.00 | 0.00 | 0.00 | 55 | 1014.4 |
| 20260506082727 | 56 | 245 | 12.0 | 18.0 | 0.00 | 0.00 | 0.00 | 55 | 1014.4 |
| 20260506081733 | 56 | 225 | 11.0 | 19.0 | 0.00 | 0.00 | 0.00 | 54 | 1014.4 |
| 20260506081729 | 56 | 217 | 10.0 | 19.0 | 0.00 | 0.00 | 0.00 | 54 | 1014.4 |
| 20260506080729 | 56 | 212 | 12.0 | 21.0 | 0.00 | 0.00 | 0.00 | 53 | 1014.5 |
| 20260506080227 | 56 | 213 | 13.0 | 21.0 | 0.00 | 0.00 | 0.00 | 53 | 1014.4 |
| 20260506072725 | 57 | 230 | 13.0 | 21.0 | 0.00 | 0.00 | 0.00 | 52 | 1014.2 |
| 20260506072225 | 57 | 199 | 13.0 | 21.0 | 0.00 | 0.00 | 0.00 | 52 | 1014.1 |
| 20260506071727 | 57 | 223 | 14.0 | 21.0 | 0.00 | 0.00 | 0.00 | 52 | 1013.9 |
| 20260506071722 | 57 | 211 | 14.0 | 21.0 | 0.00 | 0.00 | 0.00 | 52 | 1013.8 |
| 20260506071335 | 57 | 207 | 14.0 | 21.0 | 0.00 | 0.00 | 0.00 | 52 | 1013.7 |
| 20260506070222 | 57 | 217 | 13.0 | 20.0 | 0.00 | 0.00 | 0.00 | 52 | 1013.7 |
| 20260506062222 | 57 | 209 | 14.0 | 20.0 | 0.00 | 0.00 | 0.00 | 54 | 1013.4 |
| 20260506061723 | 57 | 211 | 14.0 | 20.0 | 0.00 | 0.00 | 0.00 | 54 | 1013.2 |
| 20260506061217 | 57 | 227 | 14.0 | 23.0 | 0.00 | 0.00 | 0.00 | 53 | 1013.1 |
| 20260506060718 | 57 | 254 | 14.0 | 23.0 | 0.00 | 0.00 | 0.00 | 54 | 1013.0 |
| 20260506060223 | 57 | 230 | 14.0 | 23.0 | 0.00 | 0.00 | 0.00 | 53 | 1012.9 |
| 20260506060217 | 57 | 225 | 14.0 | 23.0 | 0.00 | 0.00 | 0.00 | 53 | 1012.9 |
| 20260506051215 | 58 | 198 | 14.0 | 21.0 | 0.00 | 0.00 | 0.00 | 51 | 1012.8 |
| 20260506050716 | 58 | 192 | 13.0 | 21.0 | 0.00 | 0.00 | 0.00 | 50 | 1012.7 |
| 20260506050215 | 59 | 203 | 14.0 | 22.0 | 0.00 | 0.00 | 0.00 | 50 | 1012.5 |
| 20260506044713 | 59 | 209 | 13.0 | 22.0 | 0.00 | 0.00 | 0.00 | 49 | 1012.5 |
| 20260506044213 | 59 | 211 | 12.0 | 19.0 | 0.00 | 0.00 | 0.00 | 49 | 1012.3 |
| 20260506043713 | 59 | 232 | 12.0 | 20.0 | 0.00 | 0.00 | 0.00 | 49 | 1012.3 |
| 20260506043213 | 59 | 194 | 13.0 | 20.0 | 0.00 | 0.00 | 0.00 | 49 | 1012.2 |
| 20260506042713 | 59 | 221 | 14.0 | 21.0 | 0.00 | 0.00 | 0.00 | 49 | 1012.1 |
| 20260506042213 | 59 | 216 | 14.0 | 21.0 | 0.00 | 0.00 | 0.00 | 49 | 1012.1 |
| 20260506041713 | 59 | 184 | 13.0 | 22.0 | 0.00 | 0.00 | 0.00 | 48 | 1012.0 |
| 20260506041213 | 60 | 240 | 14.0 | 22.0 | 0.00 | 0.00 | 0.00 | 48 | 1011.9 |
| 20260506040713 | 60 | 221 | 15.0 | 22.0 | 0.00 | 0.00 | 0.00 | 48 | 1011.9 |
| 20260506040212 | 60 | 213 | 14.0 | 22.0 | 0.00 | 0.00 | 0.00 | 48 | 1011.8 |
| 20260506035713 | 60 | 213 | 14.0 | 20.0 | 0.00 | 0.00 | 0.00 | 47 | 1011.7 |
| 20260506035213 | 60 | 207 | 15.0 | 21.0 | 0.00 | 0.00 | 0.00 | 47 | 1011.6 |
| 20260506034713 | 61 | 220 | 14.0 | 21.0 | 0.00 | 0.00 | 0.00 | 46 | 1011.5 |
| 20260506034218 | 61 | 221 | 14.0 | 20.0 | 0.00 | 0.00 | 0.00 | 45 | 1011.5 |
| 20260506034214 | 61 | 200 | 13.0 | 21.0 | 0.00 | 0.00 | 0.00 | 45 | 1011.5 |
| 20260506033213 | 62 | 229 | 13.0 | 21.0 | 0.00 | 0.00 | 0.00 | 44 | 1011.3 |
| 20260506032713 | 62 | 216 | 12.0 | 21.0 | 0.00 | 0.00 | 0.00 | 44 | 1011.3 |
| 20260506032218 | 63 | 212 | 13.0 | 21.0 | 0.00 | 0.00 | 0.00 | 43 | 1011.0 |
| 20260506032212 | 62 | 198 | 13.0 | 21.0 | 0.00 | 0.00 | 0.00 | 44 | 1011.0 |
| 20260506031213 | 63 | 224 | 13.0 | 20.0 | 0.00 | 0.00 | 0.00 | 42 | 1010.9 |
| 20260506030713 | 64 | 207 | 14.0 | 20.0 | 0.00 | 0.00 | 0.00 | 42 | 1010.7 |
| 20260506030213 | 64 | 225 | 13.0 | 20.0 | 0.00 | 0.00 | 0.00 | 41 | 1010.7 |
| 20260506025713 | 64 | 222 | 13.0 | 20.0 | 0.00 | 0.00 | 0.00 | 41 | 1010.6 |
| 20260506025214 | 65 | 220 | 12.0 | 20.0 | 0.00 | 0.00 | 0.00 | 40 | 1010.5 |
| 20260506024712 | 65 | 230 | 13.0 | 20.0 | 0.00 | 0.00 | 0.00 | 39 | 1010.6 |
| 20260506024212 | 65 | 217 | 13.0 | 18.0 | 0.00 | 0.00 | 0.00 | 39 | 1010.4 |
| 20260506023712 | 66 | 223 | 13.0 | 18.0 | 0.00 | 0.00 | 0.00 | 38 | 1010.4 |
| 20260506023211 | 67 | 226 | 13.0 | 18.0 | 0.00 | 0.00 | 0.00 | 36 | 1010.3 |
| 20260506022711 | 67 | 234 | 12.0 | 17.0 | 0.00 | 0.00 | 0.00 | 35 | 1010.3 |
| 20260506022211 | 68 | 231 | 12.0 | 16.0 | 0.00 | 0.00 | 0.00 | 35 | 1010.2 |
| 20260506021711 | 68 | 246 | 12.0 | 16.0 | 0.00 | 0.00 | 0.00 | 34 | 1010.1 |
| 20260506021215 | 69 | 237 | 11.0 | 16.0 | 0.00 | 0.00 | 0.00 | 33 | 1010.1 |
| 20260506021211 | 68 | 238 | 11.0 | 16.0 | 0.00 | 0.00 | 0.00 | 33 | 1010.2 |
| 20260506020826 | 69 | 247 | 12.0 | 17.0 | 0.00 | 0.00 | 0.00 | 33 | 1010.1 |
| 20260506015711 | 70 | 241 | 11.0 | 17.0 | 0.00 | 0.00 | 0.00 | 32 | 1010.0 |
| 20260506015212 | 70 | 230 | 8.0 | 17.0 | 0.00 | 0.00 | 0.00 | 32 | 1009.9 |
| 20260506014710 | 70 | 237 | 10.0 | 19.0 | 0.00 | 0.00 | 0.00 | 31 | 1009.6 |
| 20260506014215 | 71 | 157 | 11.0 | 16.0 | 0.00 | 0.00 | 0.00 | 32 | 1009.5 |
| 20260506014211 | 70 | 126 | 13.0 | 19.0 | 0.00 | 0.00 | 0.00 | 33 | 1009.5 |
| 20260506013212 | 71 | 142 | 8.0 | 15.0 | 0.00 | 0.00 | 0.00 | 32 | 1009.6 |
| 20260506012712 | 71 | 144 | 8.0 | 12.0 | 0.00 | 0.00 | 0.00 | 31 | 1009.5 |
| 20260506012212 | 72 | 138 | 8.0 | 13.0 | 0.00 | 0.00 | 0.00 | 31 | 1009.5 |
| 20260506011711 | 72 | 174 | 8.0 | 13.0 | 0.00 | 0.00 | 0.00 | 30 | 1009.5 |
| 20260506011212 | 72 | 150 | 7.0 | 12.0 | 0.00 | 0.00 | 0.00 | 30 | 1009.5 |
| 20260506010716 | 72 | 184 | 6.0 | 14.0 | 0.00 | 0.00 | 0.00 | 29 | 1009.5 |
| 20260506010711 | 72 | 221 | 5.0 | 11.0 | 0.00 | 0.00 | 0.00 | 31 | 1009.5 |
| 20260506005712 | 72 | 184 | 5.0 | 14.0 | 0.00 | 0.00 | 0.00 | 29 | 1009.5 |
| 20260506005212 | 72 | 205 | 1.0 | 11.0 | 0.00 | 0.00 | 0.00 | 29 | 1009.4 |
| 20260506004710 | 72 | 300 | 3.0 | 11.0 | 0.00 | 0.00 | 0.00 | 29 | 1009.3 |
| 20260506004210 | 72 | 290 | 6.0 | 11.0 | 0.00 | 0.00 | 0.00 | 29 | 1009.3 |
| 20260506003710 | 72 | 290 | 6.0 | 11.0 | 0.00 | 0.00 | 0.00 | 29 | 1009.2 |
| 20260506003210 | 72 | 58 | 3.0 | 14.0 | 0.00 | 0.00 | 0.00 | 30 | 1009.2 |
| 20260506002711 | 72 | 168 | 2.0 | 14.0 | 0.00 | 0.00 | 0.00 | 31 | 1009.2 |
| 20260506002211 | 72 | 144 | 5.0 | 14.0 | 0.00 | 0.00 | 0.00 | 31 | 1009.2 |
| 20260506001712 | 72 | 264 | 7.0 | 14.0 | 0.00 | 0.00 | 0.00 | 31 | 1009.2 |
| 20260506001210 | 72 | 13 | 5.0 | 10.0 | 0.00 | 0.00 | 0.00 | 29 | 1009.1 |
| 20260506000715 | 73 | 314 | 4.0 | 10.0 | 0.00 | 0.00 | 0.00 | 29 | 1009.2 |
| 20260506000711 | 72 | 338 | 5.0 | 10.0 | 0.00 | 0.00 | 0.00 | 29 | 1009.3 |
| 20260505235710 | 73 | 353 | 5.0 | 13.0 | 0.00 | 0.00 | 0.00 | 29 | 1009.3 |
| 20260505235211 | 72 | 358 | 5.0 | 13.0 | 0.00 | 0.00 | 0.00 | 29 | 1009.2 |
| 20260505234710 | 72 | 22 | 2.0 | 10.0 | 0.00 | 0.00 | 0.00 | 30 | 1009.1 |
| 20260505234210 | 72 | 353 | 2.0 | 15.0 | 0.00 | 0.00 | 0.00 | 30 | 1009.2 |
| 20260505233710 | 73 | 340 | 5.0 | 15.0 | 0.00 | 0.00 | 0.00 | 29 | 1009.2 |
| 20260505233216 | 74 | 353 | 6.0 | 17.0 | 0.00 | 0.00 | 0.00 | 28 | 1009.3 |
| 20260505233211 | 73 | 15 | 6.0 | 17.0 | 0.00 | 0.00 | 0.00 | 29 | 1009.3 |
| 20260505232209 | 74 | 24 | 5.0 | 11.0 | 0.00 | 0.00 | 0.00 | 29 | 1009.3 |
| 20260505231709 | 74 | 78 | 3.0 | 10.0 | 0.00 | 0.00 | 0.00 | 29 | 1009.3 |
| 20260505231209 | 74 | 13 | 4.0 | 12.0 | 0.00 | 0.00 | 0.00 | 29 | 1009.3 |
| 20260505230708 | 74 | 236 | 5.0 | 12.0 | 0.00 | 0.00 | 0.00 | 29 | 1009.2 |
| 20260505230212 | 72 | 170 | 1.0 | 7.0 | 0.00 | 0.00 | 0.00 | 29 | 1009.4 |
| 20260505230208 | 73 | 135 | 3.0 | 8.0 | 0.00 | 0.00 | 0.00 | 30 | 1009.3 |
| 20260505225210 | 72 | 210 | 0.0 | 11.0 | 0.00 | 0.00 | 0.00 | 29 | 1009.4 |
| 20260505224714 | 72 | 234 | 6.0 | 14.0 | 0.00 | 0.00 | 0.00 | 29 | 1009.5 |
| 20260505224710 | 72 | 165 | 3.0 | 11.0 | 0.00 | 0.00 | 0.00 | 29 | 1009.5 |